Home > Weather > Port Harcourt > Past weeks

Flag for Nigeria Weather for the Past 2 Weeks in Port Harcourt, Nigeria

Now
86 °F

Scattered clouds.


Feels Like: 97 °F
Forecast: 75 / 100 °F
Wind: 9 mph from West

Location: Malabo/Fernando Poo

Current Time: Feb 6, 2016 at 12:55:18 PM

Latest Report: Feb 6, 2016 at 12:00 PM


Visibility: 4 mi

Pressure: 29.92 "Hg

Humidity: 75%

Dew point: 77 °F

Location of Port HarcourtLocation

Historic Weather in Port Harcourt — Graph

°F

Port Harcourt Temperature Yesterday

Maximum temperature yesterday: 88 °F (at 2:00 PM)
Minimum temperature yesterday: 81 °F (at 1:00 AM)
Average temperature yesterday: 83 °F

High & Low Weather Summary for the Past Weeks

 TemperatureHumidityPressure
High91 °F (Jan 27, 3:00 PM)94% (Jan 26, 1:00 AM)30.01 "Hg (Jan 26, 1:00 AM)
Low70 °F (Jan 30, 7:00 AM)43% (Jan 31, 11:00 AM)29.77 "Hg (Feb 2, 3:00 PM)
Average81 °F75%29.90 "Hg
* Reported Jan 22 11:00 AM — Feb 6 11:00 AM, Port Harcourt, Weather by CustomWeather, © 2016

Note: Actual official high and low records may vary slightly from our data, if they occured in-between our weather recording intervals... More about our weather records

Advertising

Port Harcourt Weather History for the Previous 24 Hours

 ConditionsComfort  
Time TempWeatherWind HumidityBarometerVisibility
11:00 AM
Sat, Feb 6
86 °FScattered clouds.8 mph70%29.95 "Hg4 mi
10:00 AM84 °FScattered clouds.7 mph79%29.95 "Hg4 mi
9:00 AM81 °FFog.5 mph89%29.95 "Hg3 mi
8:00 AM81 °FFog.5 mph84%29.95 "Hg3 mi
7:00 AM81 °FFog.6 mph84%29.92 "Hg3 mi
6:00 AM81 °FFog.5 mph84%29.89 "Hg2 mi
5:00 AM81 °FFog.6 mph84%29.89 "Hg2 mi
4:00 AM81 °FFog.7 mph84%29.89 "Hg2 mi
3:00 AM81 °FFog.8 mph84%29.89 "Hg2 mi
2:00 AM82 °FFog.9 mph79%29.89 "Hg2 mi
1:00 AM82 °FFog.10 mph84%29.92 "Hg2 mi
12:00 AM82 °FFog.12 mph84%29.95 "Hg2 mi
11:00 PM
Fri, Feb 5
82 °FFog.10 mph84%29.95 "Hg2 mi
10:00 PM82 °FFog.9 mph79%29.92 "Hg1 mi
9:00 PM82 °FFog.9 mph79%29.92 "Hg1 mi
8:00 PM82 °FFog.9 mph79%29.86 "Hg1 mi
7:00 PM82 °FFog.8 mph79%29.86 "Hg2 mi
6:00 PM84 °FFog.10 mph79%29.83 "Hg2 mi
5:00 PM86 °FHaze.10 mph75%29.80 "Hg2 mi
3:00 PM88 °FHaze.8 mph70%29.80 "Hg2 mi
2:00 PM88 °FHaze.9 mph70%29.83 "Hg2 mi
1:00 PM86 °FScattered clouds.13 mph75%29.86 "Hg2 mi
12:00 PM86 °FScattered clouds.10 mph75%29.89 "Hg2 mi
Weather by CustomWeather, © 2016

See weather overviewHow to use our weather pages